Date Time,Air Temp,Sky Temp,Clarity,Light Level,Rain Sensor,Readings
2012-11-19 00:00:14,18.5,-11.2,29.7,0.0,2.1,111
2012-11-19 00:05:14,18.6,-12.1,30.6,0.0,2.2,112
2012-11-19 00:10:14,18.5,-11.8,30.4,0.0,2.1,111
2012-11-19 00:15:14,18.6,-7.4,26.0,0.0,2.2,111
2012-11-19 00:20:14,18.6,-12.8,31.4,0.0,2.3,112
2012-11-19 00:25:14,18.3,-12.6,30.8,0.0,2.3,111
2012-11-19 00:30:14,18.6,-13.7,32.3,0.0,2.3,112
2012-11-19 00:35:14,18.6,-9.6,28.2,0.0,2.3,112
2012-11-19 00:40:14,18.6,-8.7,27.3,0.0,2.3,111
2012-11-19 00:45:14,18.7,-9.1,27.7,0.0,2.3,112
2012-11-19 00:50:14,18.8,-6.5,25.3,0.0,2.3,112
2012-11-19 00:55:14,18.9,-3.8,22.6,0.0,2.4,112
2012-11-19 01:00:14,18.9,-6.7,25.6,0.0,2.4,111
2012-11-19 01:05:14,18.3,-2.7,21.0,0.0,2.3,112
2012-11-19 01:10:14,18.4,-8.3,26.7,0.0,2.2,112
2012-11-19 01:15:14,18.3,-3.2,21.5,0.0,2.2,111
2012-11-19 01:20:14,17.5,-10.1,27.6,0.0,2.2,112
2012-11-19 01:25:14,18.7,-8.1,26.7,0.0,2.3,111
2012-11-19 01:30:14,17.9,-0.1,17.9,0.0,2.2,112
2012-11-19 01:35:14,15.4,-0.8,16.3,0.0,2.3,111
2012-11-19 01:40:14,14.9,1.7,13.2,0.0,2.2,112
2012-11-19 01:45:14,14.8,1.2,13.6,0.0,2.2,110
2012-11-19 01:50:14,14.8,2.8,12.0,0.0,2.3,111
2012-11-19 01:55:14,14.9,0.2,14.7,0.0,2.3,111
2012-11-19 02:00:14,16.4,-2.5,18.9,0.0,2.3,111
2012-11-19 02:05:14,15.5,-0.4,15.9,0.0,2.3,111
2012-11-19 02:10:14,17.2,-9.1,26.3,0.0,2.3,112
2012-11-19 02:15:14,19.0,-11.6,30.5,0.0,2.4,111
2012-11-19 02:20:14,19.4,-11.3,30.8,0.0,2.3,111
2012-11-19 02:25:14,19.6,-11.0,30.6,0.0,2.3,112
2012-11-19 02:30:14,19.7,-12.7,32.4,0.0,2.3,111
2012-11-19 02:35:14,19.7,-10.2,29.9,0.0,2.3,112
2012-11-19 02:40:14,19.8,-10.9,30.7,0.0,2.3,112
2012-11-19 02:45:14,19.8,-3.6,23.4,0.0,2.3,111
2012-11-19 02:50:14,17.9,2.4,15.5,0.0,2.3,112
2012-11-19 02:55:14,17.1,-3.0,20.1,0.0,2.3,111
2012-11-19 03:00:14,18.3,-3.3,21.6,0.0,2.4,112
2012-11-19 03:05:14,19.2,-6.2,25.4,0.0,2.3,111
2012-11-19 03:10:14,19.8,-3.9,23.7,0.0,2.3,112
2012-11-19 03:15:14,17.6,1.9,15.7,0.0,2.4,111
2012-11-19 03:20:14,18.2,-6.7,24.9,0.0,2.4,112
2012-11-19 03:25:14,19.4,-8.6,28.0,0.0,2.3,111
2012-11-19 03:30:14,20.1,-10.7,30.8,0.0,2.3,111
2012-11-19 03:35:14,20.2,-10.2,30.4,0.0,2.3,112
2012-11-19 03:40:14,20.2,-11.7,31.9,0.0,2.3,112
2012-11-19 03:45:14,20.2,-6.4,26.6,0.0,2.3,111
2012-11-19 03:50:14,17.8,3.0,14.9,0.0,2.3,111
2012-11-19 03:55:14,16.5,2.4,14.1,0.0,2.4,111
2012-11-19 04:00:14,16.7,-3.4,20.2,0.0,2.3,112
2012-11-19 04:05:14,19.2,-4.8,24.0,0.0,2.3,112
2012-11-19 04:10:14,19.0,-0.2,19.2,0.0,2.3,112
2012-11-19 04:15:14,17.0,-1.1,18.1,0.0,2.4,111
2012-11-19 04:20:14,18.4,-7.2,25.5,0.0,2.3,112
2012-11-19 04:25:14,19.8,-3.5,23.3,0.0,2.3,111
2012-11-19 04:30:14,18.5,1.7,16.7,0.0,2.3,111
2012-11-19 04:35:14,17.8,-5.6,23.4,0.0,2.3,112
2012-11-19 04:40:14,18.6,0.1,18.5,0.0,2.3,111
2012-11-19 04:45:14,18.3,-3.3,21.6,0.0,2.3,111
2012-11-19 04:50:14,18.2,-1.6,19.8,0.0,2.3,112
2012-11-19 04:55:14,17.5,3.3,14.2,0.0,2.4,111
2012-11-19 05:00:14,16.6,3.0,13.6,0.0,2.3,111
2012-11-19 05:05:14,16.4,4.0,12.4,0.0,2.3,111
2012-11-19 05:10:14,16.4,0.6,15.7,0.0,2.3,112
2012-11-19 05:15:14,18.5,-2.2,20.7,0.0,2.3,112
2012-11-19 05:20:14,19.1,-3.6,22.7,0.0,2.3,112
2012-11-19 05:25:14,20.2,-3.2,23.4,0.0,2.3,111
2012-11-19 05:30:14,19.6,-1.3,20.9,0.0,2.3,112
2012-11-19 05:35:14,20.4,-5.1,25.5,0.0,2.1,111
2012-11-19 05:40:14,20.7,-1.3,21.9,0.0,1.9,112
2012-11-19 05:45:14,20.7,-1.8,22.6,0.0,1.8,111
2012-11-19 05:50:14,18.7,1.6,17.0,0.1,2.1,112
2012-11-19 05:55:14,17.0,3.5,13.6,0.1,2.3,111
2012-11-19 06:00:14,16.7,0.9,15.8,0.1,2.4,111
2012-11-19 06:05:14,16.5,1.4,15.1,0.1,2.3,112
2012-11-19 06:10:14,16.4,0.1,16.4,0.1,2.3,111
2012-11-19 06:15:14,16.4,3.0,13.4,0.1,2.3,111
2012-11-19 06:20:14,16.5,3.3,13.1,0.2,2.3,111
2012-11-19 06:25:14,16.5,3.7,12.8,0.2,2.3,112
2012-11-19 06:30:14,16.6,2.3,14.3,0.4,2.5,111
2012-11-19 06:35:14,16.6,2.3,14.3,0.7,2.4,111
2012-11-19 06:40:14,16.5,3.8,12.8,1.1,2.3,111
2012-11-19 06:45:14,16.5,2.5,14.1,2.2,2.3,112
2012-11-19 06:50:14,16.5,2.6,13.9,4.1,2.3,110
2012-11-19 06:55:14,16.5,3.5,13.0,6.5,2.3,112
2012-11-19 07:00:14,16.6,3.0,13.6,10.9,2.4,111
2012-11-19 07:05:14,16.6,1.9,14.7,16.4,2.5,111
2012-11-19 07:10:14,16.7,3.3,13.4,19.7,2.5,112
2012-11-19 07:15:14,16.7,3.9,12.8,23.1,2.4,112
2012-11-19 07:20:14,16.7,3.9,12.8,24.6,2.4,111
2012-11-19 07:25:14,16.8,4.0,12.8,25.8,2.5,111
2012-11-19 07:30:14,16.8,4.3,12.5,27.3,2.5,112
2012-11-19 07:35:14,16.8,4.1,12.7,29.0,2.4,112
2012-11-19 07:40:14,16.8,4.2,12.6,30.0,2.4,112
2012-11-19 07:45:14,16.8,3.4,13.4,30.9,2.5,111
2012-11-19 07:50:14,16.8,1.6,15.2,31.5,2.5,112
2012-11-19 07:55:14,16.8,3.0,13.8,31.7,2.4,110
2012-11-19 08:00:14,16.8,-0.3,17.1,31.9,2.5,112
2012-11-19 08:05:14,16.9,3.4,13.5,31.9,2.5,112
2012-11-19 08:10:14,16.9,2.8,14.1,32.0,2.5,111
2012-11-19 08:15:14,16.9,-0.3,17.2,32.2,2.5,111
2012-11-19 08:20:14,17.3,1.2,16.1,32.2,2.3,111
2012-11-19 08:25:15,17.5,-2.9,20.3,32.3,2.3,112
2012-11-19 08:30:15,20.1,-7.5,27.6,32.2,2.1,111
2012-11-19 08:35:15,21.0,-1.4,22.4,32.3,2.0,112
2012-11-19 08:40:15,21.4,-6.1,27.5,32.3,2.3,112
2012-11-19 08:45:15,21.4,-9.6,31.0,32.3,2.3,112
2012-11-19 08:50:15,21.4,-9.8,31.3,32.3,2.3,111
2012-11-19 08:55:15,21.4,-3.2,24.6,32.3,2.3,112
2012-11-19 09:00:15,19.1,2.9,16.2,32.3,2.0,111
2012-11-19 09:05:15,17.7,2.4,15.3,32.3,2.2,111
2012-11-19 09:10:15,17.5,-1.1,18.6,32.4,2.3,112
2012-11-19 09:15:15,20.0,-7.5,27.5,32.4,2.0,112
2012-11-19 09:20:15,21.1,-7.5,28.7,32.4,2.3,111
2012-11-19 09:25:15,21.6,-6.8,28.4,32.4,2.4,112
2012-11-19 09:30:15,21.8,-6.1,27.9,32.4,2.5,111
2012-11-19 09:35:15,21.7,-0.3,22.1,32.4,2.6,112
2012-11-19 09:40:15,21.8,-0.7,22.4,32.4,2.4,111
2012-11-19 09:45:15,22.0,-0.7,22.6,32.4,2.3,112
2012-11-19 09:50:15,21.8,0.9,20.9,32.4,2.3,112
2012-11-19 09:55:15,19.2,3.4,15.8,32.4,2.3,111
2012-11-19 10:00:15,18.2,3.3,14.9,32.3,2.0,111
2012-11-19 10:05:15,17.8,3.1,14.7,32.4,1.8,112
2012-11-19 10:10:15,17.4,1.1,16.3,32.4,2.0,111
2012-11-19 10:15:15,17.6,2.8,14.9,32.4,2.2,111
2012-11-19 10:20:15,18.3,-1.5,19.8,32.5,2.1,111
2012-11-19 10:25:15,21.0,-0.5,21.5,32.5,2.4,112
2012-11-19 10:30:15,21.5,-0.9,22.4,32.5,2.4,111
2012-11-19 10:35:15,22.2,-3.2,25.4,32.5,2.3,112
2012-11-19 10:40:15,22.5,-2.5,25.0,32.5,2.3,112
2012-11-19 10:45:15,22.7,-1.9,24.7,32.5,2.3,111
2012-11-19 10:50:15,22.7,-3.0,25.7,32.5,2.3,112
2012-11-19 10:55:15,22.6,-1.8,24.4,32.5,2.3,112
2012-11-19 11:00:15,22.6,-3.3,25.9,32.5,2.3,111
2012-11-19 11:05:15,22.5,0.0,22.5,32.5,2.3,112
2012-11-19 11:10:15,20.2,3.1,17.1,32.5,2.4,111
2012-11-19 11:15:15,18.6,4.1,14.5,32.4,2.3,112
2012-11-19 11:20:15,18.2,4.3,13.9,32.4,2.0,111
2012-11-19 11:25:15,18.0,2.9,15.0,32.4,1.9,111
2012-11-19 11:30:15,18.5,-1.7,20.3,32.5,2.0,112
2012-11-19 11:35:15,21.1,-2.0,23.0,32.5,2.4,111
2012-11-19 11:40:15,22.0,0.1,21.9,32.5,2.3,112
2012-11-19 11:45:15,22.1,0.3,21.8,32.5,2.3,111
2012-11-19 11:50:15,21.7,1.7,20.0,32.4,2.3,112
2012-11-19 11:55:15,19.4,5.1,14.3,32.3,2.4,112
2012-11-19 12:00:15,18.3,5.3,13.0,32.3,2.1,111
2012-11-19 12:05:15,17.9,5.5,12.4,32.3,1.8,112
2012-11-19 12:10:15,17.7,5.3,12.5,32.3,1.8,112
2012-11-19 12:15:15,17.6,4.9,12.7,32.4,2.0,112
2012-11-19 12:20:15,17.6,5.4,12.2,32.3,2.0,111
2012-11-19 12:25:15,17.6,5.4,12.2,32.3,2.2,112
2012-11-19 12:30:15,17.6,5.2,12.4,32.4,2.2,112
2012-11-19 12:35:15,17.6,5.1,12.5,32.4,2.2,112
2012-11-19 12:40:15,17.6,5.2,12.4,32.4,2.2,112
2012-11-19 12:45:15,17.6,4.7,13.0,32.4,2.2,111
2012-11-19 12:50:15,17.7,5.4,12.3,32.4,2.2,112
2012-11-19 12:55:15,17.8,5.1,12.7,32.4,2.1,112
2012-11-19 13:00:15,17.8,5.2,12.6,32.4,2.0,112
2012-11-19 13:05:15,17.7,5.2,12.5,32.3,2.0,111
2012-11-19 13:10:15,17.6,5.2,12.4,32.3,2.2,112
2012-11-19 13:15:15,17.5,5.5,12.1,32.2,2.2,111
2012-11-19 13:20:15,17.5,5.2,12.3,32.3,2.2,112
2012-11-19 13:25:15,17.5,5.4,12.1,32.2,2.2,111
2012-11-19 13:30:15,17.2,5.8,11.4,32.2,2.2,112
2012-11-19 13:35:15,17.6,5.6,12.0,32.3,2.2,112
2012-11-19 13:40:15,17.5,5.7,11.8,32.3,2.2,111
2012-11-19 13:45:15,17.5,5.7,11.7,32.2,2.3,112
2012-11-19 13:50:15,17.4,5.3,12.1,32.2,2.2,111
2012-11-19 13:55:15,17.4,6.0,11.5,32.2,2.3,112
2012-11-19 14:00:15,17.4,5.6,11.8,32.2,2.2,111
2012-11-19 14:05:15,17.4,6.0,11.3,32.2,2.3,112
2012-11-19 14:10:15,17.4,5.7,11.7,32.2,2.3,111
2012-11-19 14:15:15,17.1,5.9,11.2,32.2,2.3,112
2012-11-19 14:20:15,17.4,5.9,11.5,32.1,2.3,111
2012-11-19 14:25:15,17.4,5.8,11.6,32.1,2.3,112
2012-11-19 14:30:15,17.3,5.7,11.6,32.0,2.3,112
2012-11-19 14:35:15,17.3,6.0,11.3,31.8,2.3,111
2012-11-19 14:40:15,17.3,6.1,11.3,31.9,2.3,112
2012-11-19 14:45:15,17.3,5.5,11.8,32.0,2.3,111
2012-11-19 14:50:15,17.3,5.3,12.1,32.1,2.3,112
2012-11-19 14:55:15,17.4,5.3,12.1,32.1,2.3,111
2012-11-19 15:00:15,17.4,5.4,12.0,32.1,2.3,112
2012-11-19 15:05:15,17.4,5.2,12.2,32.2,2.3,112
2012-11-19 15:10:15,17.5,5.8,11.7,32.1,2.3,111
2012-11-19 15:15:15,17.5,5.8,11.7,31.9,2.3,112
2012-11-19 15:20:15,17.5,5.8,11.7,31.8,2.2,111
2012-11-19 15:25:15,17.5,5.9,11.6,31.5,2.2,112
2012-11-19 15:30:15,17.5,6.3,11.2,31.0,2.3,111
2012-11-19 15:35:15,17.5,6.2,11.3,30.7,2.3,112
2012-11-19 15:40:15,17.5,5.6,11.9,31.0,2.3,111
2012-11-19 15:45:15,17.5,5.6,11.9,30.6,2.3,112
2012-11-19 15:50:15,17.5,6.0,11.5,29.7,2.2,111
2012-11-19 15:55:15,17.5,6.2,11.3,29.0,2.2,112
2012-11-19 16:00:15,17.6,6.1,11.5,28.5,2.2,112
2012-11-19 16:05:15,17.6,6.1,11.4,27.6,2.2,111
2012-11-19 16:10:15,17.6,6.1,11.4,25.6,2.2,112
2012-11-19 16:15:15,17.6,6.4,11.2,24.0,2.2,111
2012-11-19 16:20:15,17.6,6.5,11.1,21.3,2.3,112
2012-11-19 16:25:15,17.6,6.5,11.0,17.3,2.3,111
2012-11-19 16:30:15,17.6,6.7,10.9,14.3,2.2,111
2012-11-19 16:35:15,17.6,6.8,10.8,10.0,2.3,112
2012-11-19 16:40:15,17.6,6.8,10.8,6.3,2.3,111
2012-11-19 16:45:15,17.6,6.8,10.8,4.3,2.2,111
2012-11-19 16:50:15,17.3,6.9,10.4,2.1,2.2,112
2012-11-19 16:55:15,17.6,7.1,10.5,1.1,2.3,111
2012-11-19 17:00:15,17.6,6.8,10.8,0.6,2.3,112
2012-11-19 17:05:15,17.6,7.0,10.6,0.4,2.2,111
2012-11-19 17:10:15,17.6,6.8,10.8,0.2,2.2,111
2012-11-19 17:15:15,17.6,6.9,10.7,0.1,2.2,112
2012-11-19 17:20:15,17.7,6.8,10.8,0.1,2.3,111
2012-11-19 17:25:15,17.7,6.6,11.1,0.1,2.6,112
2012-11-19 17:30:15,17.6,5.2,12.3,0.1,5.2,111
2012-11-19 17:35:15,17.3,5.4,11.9,0.1,8.0,112
2012-11-19 17:40:15,17.1,10.7,6.4,0.0,25.1,111
2012-11-19 17:45:15,16.9,10.6,6.2,0.0,27.9,111
2012-11-19 17:50:15,16.8,12.1,4.6,0.0,20.1,112
2012-11-19 17:55:15,17.0,10.7,6.2,0.0,6.9,111
2012-11-19 18:00:15,16.9,11.4,5.5,0.0,5.6,111
2012-11-19 18:05:15,16.9,11.4,5.5,0.0,3.5,112
2012-11-19 18:10:15,16.9,8.9,8.0,0.0,4.0,111
2012-11-19 18:15:15,16.9,7.4,9.5,0.0,15.7,111
2012-11-19 18:20:15,17.0,11.3,5.7,0.0,26.7,111
2012-11-19 18:25:15,16.8,12.6,4.2,0.0,34.5,111
2012-11-19 18:30:15,16.7,12.8,3.9,0.0,26.2,111
2012-11-19 18:35:15,16.9,12.4,4.5,0.0,28.8,112
2012-11-19 18:40:15,16.9,12.6,4.2,0.0,34.0,111
2012-11-19 18:45:15,16.7,12.1,4.6,0.0,34.6,111
2012-11-19 18:50:15,16.5,11.9,4.6,0.0,35.6,112
2012-11-19 18:55:15,16.3,12.8,3.5,0.0,35.7,111
2012-11-19 19:00:15,16.3,12.6,3.8,0.0,35.4,111
2012-11-19 19:05:15,16.5,12.8,3.7,0.0,34.7,112
2012-11-19 19:10:15,16.5,12.6,3.9,0.0,29.9,112
2012-11-19 19:15:15,16.6,11.9,4.7,0.0,29.8,111
2012-11-19 19:20:15,16.5,12.2,4.3,0.0,22.9,111
2012-11-19 19:25:15,16.9,12.5,4.4,0.0,23.2,112
2012-11-19 19:30:15,17.0,12.1,4.9,0.0,15.5,111
2012-11-19 19:35:15,17.0,12.0,5.0,0.0,22.1,112
2012-11-19 19:40:15,16.8,12.1,4.7,0.0,23.7,111
2012-11-19 19:45:15,17.0,12.1,4.9,0.0,15.2,112
2012-11-19 19:50:15,17.0,11.6,5.4,0.0,14.3,111
2012-11-19 19:55:15,17.0,11.6,5.4,0.0,5.7,111
2012-11-19 20:00:15,17.0,11.1,5.8,0.0,4.1,111
2012-11-19 20:05:15,16.9,7.3,9.7,0.0,2.7,111
2012-11-19 20:10:15,16.9,7.1,9.8,0.0,3.2,112
2012-11-19 20:15:15,17.0,6.4,10.6,0.0,7.6,111
2012-11-19 20:20:15,17.0,10.8,6.2,0.0,14.9,111
2012-11-19 20:25:15,17.1,11.3,5.8,0.0,5.8,111
2012-11-19 20:30:15,17.0,10.6,6.4,0.0,15.6,112
2012-11-19 20:35:15,17.0,11.8,5.2,0.0,3.8,111
2012-11-19 20:40:15,17.0,9.4,7.6,0.0,2.5,112
2012-11-19 20:45:15,17.0,9.7,7.3,0.0,20.1,111
2012-11-19 20:50:15,17.0,11.9,5.1,0.0,23.8,111
2012-11-19 20:55:15,17.1,11.5,5.6,0.0,13.4,112
2012-11-19 21:00:15,17.1,11.4,5.7,0.0,5.5,111
2012-11-19 21:05:15,17.1,13.2,3.8,0.0,19.5,112
2012-11-19 21:10:15,17.1,12.2,4.9,0.0,12.1,111
2012-11-19 21:15:15,17.1,11.7,5.3,0.0,7.7,112
2012-11-19 21:20:15,17.2,11.8,5.4,0.0,8.4,111
2012-11-19 21:25:15,17.2,11.1,6.1,0.0,4.9,111
2012-11-19 21:30:15,17.0,12.0,5.0,0.0,2.8,112
2012-11-19 21:35:15,16.7,7.4,9.3,0.0,6.0,111
2012-11-19 21:40:15,17.3,12.1,5.2,0.0,17.2,112
2012-11-19 21:45:15,17.2,14.0,3.2,0.0,34.0,111
2012-11-19 21:50:15,16.9,13.1,3.9,0.0,22.5,111
2012-11-19 21:55:15,17.5,12.7,4.8,0.0,13.8,111
2012-11-19 22:00:15,17.6,12.6,5.0,0.0,14.1,111
2012-11-19 22:05:15,17.6,12.8,4.8,0.0,15.8,111
2012-11-19 22:10:15,17.6,11.7,5.8,0.0,12.5,112
2012-11-19 22:15:15,17.2,12.3,5.0,0.0,7.0,112
2012-11-19 22:20:15,17.3,11.0,6.3,0.0,3.5,111
2012-11-19 22:25:15,17.2,9.1,8.1,0.0,9.6,112
2012-11-19 22:30:15,17.3,10.8,6.5,0.0,9.6,111
2012-11-19 22:35:15,17.3,12.9,4.4,0.0,16.6,111
2012-11-19 22:40:15,17.5,12.4,5.1,0.0,12.5,111
2012-11-19 22:45:15,17.4,11.9,5.5,0.0,5.0,112
2012-11-19 22:50:15,17.3,12.0,5.3,0.0,5.9,111
2012-11-19 22:55:15,17.3,8.2,9.0,0.0,2.9,112
2012-11-19 23:00:15,17.2,7.0,10.2,0.0,7.2,111
2012-11-19 23:05:15,17.4,12.4,5.0,0.0,21.7,111
2012-11-19 23:10:15,17.5,14.9,2.7,0.0,34.1,112
2012-11-19 23:15:15,17.4,14.5,3.0,0.0,33.9,111
2012-11-19 23:20:15,17.3,14.8,2.5,0.0,33.2,112
2012-11-19 23:25:16,17.7,14.8,2.9,0.0,34.5,111
2012-11-19 23:30:16,17.5,15.0,2.5,0.0,31.5,111
2012-11-19 23:35:16,17.1,14.2,3.0,0.0,33.7,112
2012-11-19 23:40:16,17.4,13.3,4.0,0.0,20.4,111
2012-11-19 23:45:16,17.6,11.7,5.9,0.0,2.6,112
2012-11-19 23:50:16,17.4,8.9,8.5,0.0,2.3,111
2012-11-19 23:55:16,17.4,8.4,9.1,0.0,2.3,111
